[[{"header":{"parameterUnit":"m.s-1","parameterCategory":2,"la1":30.2991,"la2":30.254,"lo1":-89.0895,"lo2":-89.0444,"dy":0.0017,"dx":0.0017,"nx":28,"ny":28,"refTime":"2024-05-04T09:00:00:Z","depth":"0","parameterNumber":2,"parameterNumberName":"U-component_of_CURRENTS"},"data":[0,0,0,0,0,0,0,0,0,0,0,0,0,0,0,0,0,0,0,0,0,0,0,0,0,0,0,0,0,0,0,0,0,0,0,0,0,0,0,0,0,0,0,0,0,0,0,0,0,0,0,0,0,0,0,0,0,0,0.1435,0.1435,0,0.1407,0.1407,0.1406,0.1375,0.1374,0.1374,0.1374,0.1332,0.1332,0.1331,0,0,0,0,0,0,0,0,0,0,0,0,0,0.1388,0.1389,0.1435,0.1435,0.1435,0.1408,0.1407,0.1406,0.1375,0.1374,0.1374,0.1374,0.1333,0.1332,0.1331,0,0,0,0,0,0,0,0,0,0,0,0,0,0.1387,0.1389,0.1435,0.1417,0.1416,0.1408,0.1407,0.1406,0.1375,0.1374,0.1374,0.1374,0.1333,0.1332,0.133,0.133,0,0,0.1327,0.1326,0,0,0,0,0,0,0,0,0.1387,0.1388,0.142,0.1419,0.1417,0.1396,0.1375,0.1381,0.1375,0.1388,0.1374,0.1373,0.1354,0.1351,0.1344,0.1328,0.1326,0.1326,0.1326,0.1325,0.1325,0,0,0,0,0,0,0,0.1387,0.1389,0.1422,0.142,0.1418,0.1386,0.1386,0.1376,0.1371,0.1387,0.1385,0.1386,0.1353,0.1345,0.1342,0.1326,0.1326,0.1325,0.1324,0.1324,0.1362,0.1364,0,0,0,0,0,0,0.14,0.139,0.1422,0.1421,0.1403,0.1388,0.1388,0.1401,0.1372,0.1368,0.1386,0.1384,0.1347,0.1344,0.1341,0.1378,0.1325,0.1324,0.1323,0.1361,0.1363,0.1365,0,0,0,0,0,0,0.14,0.1404,0.1424,0.1405,0.1406,0.139,0.1405,0.1401,0.1397,0.1372,0.1367,0.1388,0.1347,0.1343,0.1349,0.1374,0.1323,0.1322,0.1359,0.1361,0.1364,0.1427,0,0,0,0,0,0,0.1399,0.1404,0.142,0.1407,0.1408,0.1423,0.1405,0.1401,0.14,0.1397,0.1372,0.1367,0.1346,0.1351,0.1348,0.1372,0.1321,0.1356,0.136,0.1363,0.1422,0.1431,0.1439,0,0,0,0,0,0.1397,0.1413,0.1421,0.1425,0.143,0.1423,0.1421,0.1405,0.14,0.14,0.1395,0.1368,0.137,0.1351,0.1347,0.1371,0.1355,0.1359,0.1363,0.1419,0.1429,0.1439,0,0,0,0,0,0,0.1393,0.1411,0.1419,0.144,0.1438,0.1419,0.1418,0.1412,0.1407,0.1407,0.1384,0.1379,0.1398,0.138,0.1359,0.1396,0.1361,0.1364,0.1405,0.1415,0.1423,0.1439,0.132,0,0,0,0,0,0.1405,0.1424,0.1431,0.1444,0.1449,0.1438,0.1435,0.1427,0.142,0.1417,0.1404,0.1401,0.1411,0.1408,0.1407,0.1419,0.1438,0.1436,0.1444,0.1451,0.1464,0.1517,0.1531,0.1378,0.1378,0.1378,0,0,0.1404,0.1418,0.1427,0.1445,0.1442,0.1455,0.1434,0.1433,0.1447,0.1414,0.1428,0.1426,0.1423,0.1443,0.1449,0.1429,0.1511,0.1456,0.1462,0.1471,0.1522,0.1537,0.155,0.1381,0.138,0.138,0,0,0.1409,0.143,0.1449,0.1456,0.1465,0.1463,0.1469,0.1463,0.1465,0.1479,0.1473,0.1493,0.1486,0.15,0.1505,0.156,0.1555,0.1556,0.1604,0.1655,0.1668,0.168,0.1746,0.1763,0.1557,0.1557,0.1557,0,0.1412,0.1444,0.1448,0.147,0.1482,0.1474,0.1495,0.1498,0.1495,0.1513,0.1492,0.1532,0.152,0.1573,0.1591,0.1579,0.161,0.1563,0.1666,0.1678,0.1689,0.1754,0.1772,0.156,0.156,0.1559,0.1559,0,0.1433,0.1462,0.147,0.1507,0.1517,0.1529,0.1543,0.1557,0.1562,0.157,0.1616,0.1613,0.164,0.1642,0.1629,0.1705,0.1706,0.1673,0.164,0.1708,0.1772,0.179,0.1565,0.1564,0.1563,0.1562,0,0,0.143,0.148,0.1485,0.1511,0.1541,0.1549,0.1588,0.1624,0.1659,0.1667,0.1719,0.1742,0.1745,0.1754,0.1748,0.1786,0.1889,0.1763,0.1764,0.1827,0.2024,0.2041,0.2062,0.1872,0.1875,0.1877,0.2046,0,0.145,0.1502,0.1522,0.1565,0.1593,0.1613,0.1648,0.168,0.1706,0.1752,0.1777,0.1816,0.1787,0.1806,0.1845,0.1875,0.1935,0.1848,0.195,0.1954,0.1958,0.2082,0.1986,0.213,0.2063,0.2066,0.2068,0,0.1466,0.1503,0.1557,0.161,0.1624,0.1649,0.1715,0.1746,0.1812,0.1834,0.1888,0.1903,0.1977,0.1928,0.2043,0.1989,0.2022,0.2041,0.2047,0.2052,0.2003,0.2047,0.2164,0.2089,0.2095,0.2093,0.2091,0,0.1462,0.1523,0.157,0.1589,0.165,0.168,0.1711,0.1773,0.1812,0.1894,0.1941,0.2013,0.2064,0.2115,0.2164,0.2111,0.229,0.2218,0.2276,0.2277,0.2212,0.2203,0.2264,0.2316,0.2316,0.2315,0.2315,0,0.1477,0.1511,0.1573,0.1599,0.1642,0.1686,0.1739,0.1783,0.1864,0.193,0.1983,0.206,0.2112,0.2209,0.2228,0.2335,0.2354,0.2329,0.2336,0.2234,0.2225,0.2166,0.2115,0.2322,0.232,0.2319,0.2318,0,0.1461,0.1509,0.1554,0.1623,0.1639,0.1668,0.1733,0.1785,0.1867,0.1964,0.1999,0.2125,0.2261,0.2331,0.2437,0.2435,0.2447,0.254,0.2432,0.2423,0.2372,0.2328,0.2327,0.2256,0.2632,0.2634,0.2635,0,0.1458,0.1485,0.1549,0.1571,0.1601,0.1646,0.1684,0.1765,0.1827,0.2004,0.2061,0.2232,0.2338,0.2527,0.2572,0.2665,0.2536,0.2613,0.2487,0.2406,0.2361,0.2227,0.2156,0.2435,0.2435,0.2434,0.2434,0,0.1444,0.1468,0.1507,0.1546,0.1587,0.1621,0.1687,0.1733,0.186,0.1957,0.2111,0.2217,0.2433,0.2496,0.2637,0.266,0.2469,0.261,0.2545,0.2252,0.2091,0.2013,0.2299,0.2431,0.2432,0.2432,0.2432,0.2432,0.142,0.1434,0.1483,0.1517,0.1556,0.1594,0.1608,0.1702,0.1789,0.1934,0.2078,0.2207,0.2365,0.255,0.2571,0.2541,0.2495,0.2435,0.2407,0.2294,0.2164,0.2469,0.2587,0.2588,0.2589,0.259,0.2591,0,0.1384,0.1415,0.145,0.1484,0.1504,0.1541,0.1609,0.1625,0.1704,0.1863,0.1982,0.2144,0.2235,0.2336,0.2402,0.2332,0.2185,0.2258,0.2022,0.1975,0.2277,0.2204,0.222,0.222,0.222,0.222,0.222,0.222,0.1373,0.1394,0.1418,0.1426,0.1448,0.1449,0.1475,0.1517,0.1596,0.1712,0.1806,0.1931,0.211,0.2203,0.217,0.2123,0.1934,0.1861,0.1849,0.2033,0.2045,0.2056,0.1976,0.1943,0.1943,0.1436,0.1432,0.143]},{"header":{"parameterUnit":"m.s-1","parameterCategory":2,"la1":30.2991,"la2":30.254,"lo1":-89.0895,"lo2":-89.0444,"dy":0.0017,"dx":0.0017,"nx":28,"ny":28,"refTime":"2024-05-04T09:00:00:Z","depth":"0","parameterNumber":3,"parameterNumberName":"V-component_of_CURRENTS"},"data":[0,0,0,0,0,0,0,0,0,0,0,0,0,0,0,0,0,0,0,0,0,0,0,0,0,0,0,0,0,0,0,0,0,0,0,0,0,0,0,0,0,0,0,0,0,0,0,0,0,0,0,0,0,0,0,0,0,0,0.0151,0.0151,0,0.0121,0.0121,0.0121,0.0117,0.0117,0.0117,0.0117,0.0097,0.0096,0.0096,0,0,0,0,0,0,0,0,0,0,0,0,0,0.0152,0.0153,0.0152,0.0151,0.015,0.0121,0.0121,0.0121,0.0117,0.0117,0.0117,0.0117,0.0097,0.0096,0.0095,0,0,0,0,0,0,0,0,0,0,0,0,0,0.0142,0.0153,0.0152,0.0143,0.0142,0.0121,0.0121,0.0121,0.0117,0.0117,0.0117,0.0117,0.0097,0.0096,0.0095,0.0087,0,0,0.0093,0.0092,0,0,0,0,0,0,0,0,0.0143,0.0143,0.0145,0.0144,0.0142,0.0121,0.0114,0.0109,0.0117,0.0129,0.0117,0.0117,0.0104,0.0103,0.01,0.0086,0.0085,0.0092,0.0092,0.0092,0.0091,0,0,0,0,0,0,0,0.0144,0.0143,0.0142,0.0144,0.0143,0.0122,0.0122,0.0113,0.0118,0.0128,0.0127,0.012,0.0104,0.0101,0.0099,0.0085,0.0092,0.0092,0.0091,0.0091,0.0053,0.0052,0,0,0,0,0,0,0.0146,0.0145,0.0143,0.0141,0.014,0.0123,0.0122,0.013,0.0118,0.0115,0.012,0.012,0.0102,0.01,0.0099,0.0094,0.0092,0.0091,0.009,0.0053,0.0053,0.0052,0,0,0,0,0,0,0.0146,0.0147,0.0144,0.0139,0.0137,0.0123,0.0131,0.0129,0.0126,0.0111,0.011,0.0119,0.0102,0.01,0.009,0.0093,0.009,0.0089,0.0054,0.0053,0.0052,0.0081,0,0,0,0,0,0,0.0147,0.0147,0.0152,0.014,0.0137,0.0136,0.013,0.0128,0.0121,0.0121,0.011,0.0109,0.0102,0.0092,0.0089,0.0092,0.0089,0.0054,0.0053,0.0053,0.0081,0.0082,0.0082,0,0,0,0,0,0.0147,0.016,0.0153,0.0152,0.0146,0.0136,0.0133,0.0124,0.0121,0.0122,0.0112,0.0109,0.0084,0.0091,0.0088,0.009,0.0055,0.0054,0.0053,0.008,0.0081,0.0082,0,0,0,0,0,0,0.0171,0.016,0.0153,0.0164,0.0149,0.0134,0.0135,0.0124,0.0117,0.0117,0.0106,0.0103,0.0094,0.0085,0.0092,0.0074,0.0068,0.0066,0.009,0.009,0.0091,0.0104,0.0088,0,0,0,0,0,0.0175,0.018,0.0163,0.0171,0.0166,0.0149,0.0142,0.0133,0.0123,0.012,0.0112,0.01,0.0087,0.0084,0.0071,0.0065,0.0052,0.0061,0.0062,0.0063,0.007,0.0046,0.0045,0.0049,0.0049,0.0049,0,0,0.0186,0.018,0.0183,0.0175,0.0165,0.0161,0.0147,0.0139,0.0136,0.0118,0.0119,0.0102,0.0084,0.0077,0.0072,0.0071,0.0054,0.0062,0.0063,0.0069,0.0045,0.0044,0.0044,0.0048,0.0048,0.0048,0,0,0.0205,0.0206,0.021,0.02,0.0181,0.017,0.0168,0.0152,0.0147,0.0137,0.0123,0.011,0.0094,0.0084,0.0075,0.0071,0.0057,0.0062,0.0082,0.0058,0.0058,0.0058,0.0043,0.0041,0.0066,0.0066,0.0066,0,0.0213,0.0222,0.0209,0.0207,0.0204,0.0177,0.018,0.0169,0.0151,0.0151,0.0141,0.0114,0.0098,0.009,0.0087,0.0075,0.006,0.0084,0.0061,0.006,0.0059,0.0044,0.0041,0.0067,0.0067,0.0067,0.0067,0,0.0229,0.0235,0.024,0.0231,0.0225,0.0224,0.0205,0.0201,0.0189,0.0176,0.0164,0.0138,0.0125,0.0112,0.0099,0.0087,0.0077,0.0063,0.0063,0.0061,0.0044,0.0041,0.0069,0.0068,0.0068,0.0068,0,0,0.026,0.0251,0.0253,0.0256,0.0239,0.0238,0.0237,0.023,0.0237,0.0208,0.0215,0.018,0.0165,0.0153,0.013,0.0108,0.0088,0.0087,0.0085,0.0081,0.004,0.0065,0.0064,0.0069,0.0068,0.0068,0.0031,0,0.0276,0.0279,0.0273,0.0285,0.029,0.0275,0.0282,0.0271,0.0259,0.0258,0.0223,0.0214,0.018,0.0175,0.0146,0.0107,0.0081,0.0099,0.0035,0.0033,0.0063,0.0062,0.0075,0.0046,0.0028,0.0028,0.0028,0,0.0297,0.0299,0.0307,0.0321,0.0324,0.0326,0.0339,0.0338,0.0325,0.0319,0.0298,0.0269,0.0239,0.0205,0.0136,0.0149,0.0097,0.0059,0.0056,0.007,0.0053,0.0043,0.0041,-0.0071,0.0023,0.0023,0.0024,0,0.0323,0.0331,0.034,0.0341,0.0344,0.0355,0.036,0.0356,0.0375,0.0354,0.0372,0.0315,0.0306,0.0227,0.016,0.0141,0.0086,0.0049,0.002,0.0021,0.0016,0.0018,-0.0093,-0.0009,-0.0009,-0.0009,-0.0009,0,0.0346,0.0361,0.0353,0.0359,0.0391,0.0381,0.0413,0.0414,0.0426,0.0469,0.0405,0.0431,0.0311,0.0271,0.0181,0.0111,0.0102,0.0028,0.0014,0.0026,0.0029,-0.008,-0.0135,-0.0011,-0.001,-0.001,-0.001,0,0.0375,0.0364,0.0386,0.0393,0.0401,0.0423,0.0459,0.0492,0.0493,0.0549,0.0551,0.052,0.0477,0.0368,0.0253,0.0162,0.0023,0.0048,0.0078,0.0069,-0.0072,-0.0124,-0.0225,-0.0264,-0.0005,-0.0005,-0.0005,0,0.0392,0.0397,0.0412,0.0438,0.0445,0.0475,0.0511,0.0523,0.0573,0.0622,0.0669,0.0637,0.0659,0.0502,0.0323,0.0174,0.0062,0.0068,0.0029,-0.0071,-0.0141,-0.0183,-0.0212,0.0026,0.0026,0.0027,0.0027,0,0.0434,0.0429,0.0448,0.0493,0.0533,0.0578,0.0633,0.0685,0.0728,0.0795,0.0883,0.09,0.0759,0.0616,0.0397,0.0279,0.0002,0.0074,-0.0048,-0.0134,-0.017,-0.0216,0.0044,0.0032,0.0031,0.0031,0.0031,0.003,0.048,0.0501,0.0522,0.0569,0.062,0.0693,0.075,0.0835,0.0939,0.1066,0.1054,0.1113,0.0873,0.0584,0.0397,0.0048,0.0043,-0.007,-0.0128,-0.0164,-0.0195,0.0089,0.0076,0.0076,0.0076,0.0076,0.0076,0,0.0542,0.0557,0.0603,0.0663,0.0729,0.0737,0.0849,0.0928,0.1079,0.1194,0.1283,0.1201,0.0915,0.0587,0.0124,-0.0124,-0.0223,-0.0257,-0.0342,-0.0364,-0.0134,-0.0126,-0.016,-0.016,-0.0159,-0.0159,-0.0159,-0.0159,0.0582,0.0627,0.0637,0.0746,0.0795,0.0896,0.0966,0.1099,0.1204,0.1361,0.1403,0.1407,0.1166,0.0347,-0.0222,-0.0354,-0.0522,-0.0548,-0.0632,-0.0509,-0.0497,-0.0486,-0.0493,-0.0603,-0.0603,-0.0839,-0.0842,-0.0844]}],[{"header":{"parameterUnit":"m.s-1","parameterCategory":2,"la1":30.2991,"la2":30.254,"lo1":-89.0895,"lo2":-89.0444,"dy":0.0017,"dx":0.0017,"nx":28,"ny":28,"refTime":"2024-05-04T09:00:00:Z","depth":"2","parameterNumber":2,"parameterNumberName":"U-component_of_CURRENTS"},"data":[0,0,0,0,0,0,0,0,0,0,0,0,0,0,0,0,0,0,0,0,0,0,0,0,0,0,0,0,0,0,0,0,0,0,0,0,0,0,0,0,0,0,0,0,0,0,0,0,0,0,0,0,0,0,0,0,0,0,0.1562,0.1562,0,0.1534,0.1534,0.1533,0.1502,0.1502,0.1502,0.1502,0.1449,0.1447,0.1446,0,0,0,0,0,0,0,0,0,0,0,0,0,0.1532,0.1533,0.1562,0.1562,0.1562,0.1534,0.1534,0.1533,0.1502,0.1502,0.1502,0.1502,0.1449,0.1447,0.1446,0,0,0,0,0,0,0,0,0,0,0,0,0,0.1525,0.1533,0.1562,0.1547,0.1546,0.1535,0.1534,0.1533,0.1502,0.1502,0.1502,0.1502,0.145,0.1448,0.1445,0.1433,0,0,0.1439,0.1438,0,0,0,0,0,0,0,0,0.1525,0.1525,0.1549,0.1548,0.1547,0.1526,0.1504,0.15,0.1502,0.1514,0.1502,0.1502,0.1475,0.1471,0.1459,0.143,0.1428,0.1439,0.1437,0.1437,0.1436,0,0,0,0,0,0,0,0.1526,0.1526,0.1546,0.155,0.1548,0.1523,0.1522,0.1502,0.1491,0.1513,0.1512,0.1516,0.1474,0.1461,0.1458,0.1427,0.1439,0.1437,0.1436,0.1435,0.1449,0.1451,0,0,0,0,0,0,0.1542,0.1527,0.1547,0.1546,0.1541,0.1524,0.1522,0.1529,0.1492,0.1487,0.1516,0.1515,0.1465,0.146,0.1456,0.1485,0.1437,0.1435,0.1433,0.1447,0.1449,0.1451,0,0,0,0,0,0,0.1541,0.1544,0.1549,0.1539,0.1539,0.1525,0.1532,0.1528,0.152,0.1495,0.149,0.1513,0.1465,0.1459,0.1456,0.1481,0.1434,0.1432,0.1445,0.1448,0.145,0.1513,0,0,0,0,0,0,0.1541,0.1544,0.1552,0.1541,0.154,0.1548,0.1533,0.1528,0.1525,0.1523,0.1491,0.1485,0.1464,0.1459,0.1454,0.1477,0.143,0.1443,0.1447,0.1449,0.1509,0.1517,0.1525,0,0,0,0,0,0.154,0.1548,0.1553,0.1555,0.1553,0.1549,0.1546,0.1532,0.1525,0.1523,0.1512,0.1486,0.1476,0.1459,0.1452,0.1475,0.1442,0.1446,0.1449,0.1505,0.1516,0.1524,0,0,0,0,0,0,0.1541,0.1546,0.1551,0.1562,0.1562,0.1546,0.1547,0.1537,0.1524,0.1523,0.1497,0.1491,0.1502,0.1482,0.1464,0.1492,0.1459,0.1461,0.1504,0.1513,0.1521,0.1537,0.1428,0,0,0,0,0,0.1548,0.1553,0.1558,0.1567,0.1572,0.1561,0.1558,0.1549,0.154,0.1533,0.1514,0.1506,0.1511,0.1506,0.15,0.1504,0.1518,0.152,0.1527,0.1534,0.1546,0.1596,0.161,0.1463,0.1463,0.1463,0,0,0.1551,0.1556,0.1559,0.1567,0.1567,0.1578,0.1558,0.1557,0.1566,0.153,0.1533,0.1528,0.152,0.1535,0.1538,0.1519,0.1586,0.1539,0.1544,0.1552,0.1602,0.1616,0.1628,0.1466,0.1465,0.1465,0,0,0.1558,0.1568,0.1576,0.1582,0.1589,0.1587,0.1592,0.1582,0.158,0.1583,0.1575,0.159,0.1572,0.1586,0.159,0.1637,0.1628,0.1632,0.168,0.1729,0.1741,0.1752,0.18,0.1815,0.1634,0.1634,0.1634,0,0.1566,0.1579,0.1577,0.1591,0.1603,0.1597,0.1614,0.1613,0.1602,0.1614,0.1593,0.1619,0.1604,0.1653,0.167,0.1655,0.168,0.1641,0.1739,0.1751,0.1761,0.1807,0.1823,0.1637,0.1637,0.1637,0.1636,0,0.1579,0.1595,0.1603,0.1625,0.1634,0.1645,0.1656,0.1665,0.1663,0.1666,0.1703,0.1697,0.1717,0.1719,0.1704,0.1776,0.177,0.1745,0.1715,0.178,0.1824,0.1839,0.1642,0.1641,0.164,0.1639,0,0,0.1586,0.1609,0.1612,0.1632,0.1654,0.1663,0.1693,0.1723,0.1754,0.1752,0.1798,0.1815,0.1818,0.1825,0.1819,0.1856,0.1946,0.1832,0.1833,0.1879,0.2063,0.2006,0.2017,0.1938,0.1941,0.1943,0.2069,0,0.1602,0.1631,0.1639,0.1676,0.1699,0.1715,0.1745,0.177,0.1792,0.1831,0.1852,0.1887,0.1858,0.1876,0.1913,0.1937,0.1988,0.1915,0.1994,0.1997,0.1937,0.2033,0.1864,0.1957,0.2084,0.2086,0.2088,0,0.1615,0.1636,0.1668,0.1713,0.1726,0.1747,0.1808,0.1833,0.1892,0.191,0.1958,0.1971,0.2037,0.1993,0.2091,0.2046,0.2068,0.2081,0.2086,0.202,0.1968,0.1911,0.198,0.2113,0.2111,0.2109,0.2108,0,0.1615,0.1659,0.1685,0.1699,0.1746,0.1771,0.1801,0.1857,0.189,0.1968,0.2006,0.2076,0.2119,0.2163,0.2184,0.2151,0.2282,0.2238,0.2216,0.2213,0.2079,0.2058,0.2323,0.2323,0.2322,0.2322,0.2322,0,0.1626,0.1645,0.1689,0.1701,0.1738,0.178,0.1826,0.1868,0.1943,0.1998,0.2048,0.2103,0.2163,0.223,0.2238,0.2281,0.2334,0.2255,0.2251,0.2096,0.2076,0.2206,0.2191,0.2327,0.2326,0.2325,0.2324,0,0.16,0.163,0.166,0.1716,0.1731,0.1756,0.1817,0.1866,0.1941,0.202,0.2051,0.2154,0.224,0.2293,0.2375,0.2352,0.2391,0.239,0.2203,0.2174,0.2279,0.2266,0.2398,0.2397,0.2396,0.2396,0.2395,0,0.1583,0.1599,0.1649,0.1668,0.1686,0.1728,0.1762,0.1842,0.1898,0.2038,0.2082,0.22,0.2248,0.2354,0.2358,0.2397,0.2412,0.2247,0.2148,0.2309,0.2292,0.228,0.2268,0.2006,0.2002,0.1999,0.1997,0,0.1552,0.157,0.1596,0.1632,0.1667,0.1695,0.1757,0.1794,0.1907,0.1969,0.2063,0.2115,0.2234,0.2191,0.2248,0.2237,0.2223,0.2187,0.2433,0.1999,0.1945,0.1927,0.1927,0.1971,0.1973,0.1975,0.1977,0.1978,0.1527,0.1535,0.1576,0.1603,0.1635,0.1661,0.166,0.1731,0.178,0.1856,0.1966,0.1983,0.2039,0.203,0.1992,0.1977,0.2121,0.2017,0.2024,0.2034,0.1953,0.1899,0.1902,0.1904,0.1906,0.1907,0.1909,0,0.1513,0.1526,0.1551,0.1579,0.159,0.162,0.1656,0.1633,0.1642,0.1733,0.1769,0.1668,0.1661,0.1718,0.1665,0.168,0.1642,0.1603,0.1533,0.1562,0.1588,0.1479,0.1305,0.1302,0.13,0.1298,0,0,0.1511,0.1525,0.1536,0.1533,0.1545,0.1516,0.1512,0.147,0.1486,0.1449,0.1451,0.1577,0.167,0.1453,0.1446,0.1363,0.1441,0.1312,0.1806,0.1752,0.1774,0.1847,0.1717,0,0,0,0,0]},{"header":{"parameterUnit":"m.s-1","parameterCategory":2,"la1":30.2991,"la2":30.254,"lo1":-89.0895,"lo2":-89.0444,"dy":0.0017,"dx":0.0017,"nx":28,"ny":28,"refTime":"2024-05-04T09:00:00:Z","depth":"2","parameterNumber":3,"parameterNumberName":"V-component_of_CURRENTS"},"data":[0,0,0,0,0,0,0,0,0,0,0,0,0,0,0,0,0,0,0,0,0,0,0,0,0,0,0,0,0,0,0,0,0,0,0,0,0,0,0,0,0,0,0,0,0,0,0,0,0,0,0,0,0,0,0,0,0,0,-0.0135,-0.0136,0,-0.0144,-0.0144,-0.0143,-0.0137,-0.0137,-0.0137,-0.0137,-0.0126,-0.0126,-0.0125,0,0,0,0,0,0,0,0,0,0,0,0,0,-0.017,-0.0169,-0.0135,-0.0136,-0.0136,-0.0144,-0.0144,-0.0143,-0.0137,-0.0137,-0.0137,-0.0137,-0.0126,-0.0126,-0.0125,0,0,0,0,0,0,0,0,0,0,0,0,0,-0.016,-0.0168,-0.0135,-0.0137,-0.0138,-0.0144,-0.0144,-0.0143,-0.0137,-0.0137,-0.0137,-0.0137,-0.0127,-0.0126,-0.0125,-0.0118,0,0,-0.0124,-0.0123,0,0,0,0,0,0,0,0,-0.0161,-0.0158,-0.0136,-0.0137,-0.0138,-0.0143,-0.0152,-0.0135,-0.0136,-0.0132,-0.0137,-0.0137,-0.0133,-0.0132,-0.0127,-0.0118,-0.0117,-0.0124,-0.0123,-0.0123,-0.0123,0,0,0,0,0,0,0,-0.0161,-0.0158,-0.0134,-0.0137,-0.0138,-0.0158,-0.0155,-0.0149,-0.0128,-0.0133,-0.0133,-0.0141,-0.0133,-0.0128,-0.0127,-0.0117,-0.0124,-0.0123,-0.0123,-0.0122,-0.012,-0.012,0,0,0,0,0,0,-0.0166,-0.0158,-0.0134,-0.0135,-0.0155,-0.0157,-0.0154,-0.0138,-0.0128,-0.0128,-0.0141,-0.0141,-0.0128,-0.0127,-0.0126,-0.0114,-0.0123,-0.0122,-0.0122,-0.012,-0.012,-0.012,0,0,0,0,0,0,-0.0166,-0.0162,-0.0134,-0.0152,-0.015,-0.0156,-0.0138,-0.0138,-0.0127,-0.0136,-0.0135,-0.013,-0.0129,-0.0127,-0.0117,-0.0114,-0.0122,-0.0122,-0.0119,-0.012,-0.012,-0.0092,0,0,0,0,0,0,-0.0166,-0.0161,-0.0139,-0.0151,-0.015,-0.0134,-0.0138,-0.0138,-0.0134,-0.0133,-0.0126,-0.0125,-0.0129,-0.0118,-0.0117,-0.0113,-0.0121,-0.0119,-0.012,-0.012,-0.0092,-0.0091,-0.009,0,0,0,0,0,-0.0167,-0.0143,-0.0137,-0.0135,-0.0122,-0.0134,-0.0134,-0.0137,-0.0133,-0.0126,-0.0123,-0.0125,-0.0121,-0.0117,-0.0116,-0.0112,-0.0119,-0.0119,-0.012,-0.0093,-0.0091,-0.009,0,0,0,0,0,0,-0.0148,-0.0141,-0.0135,-0.0108,-0.0119,-0.0134,-0.0133,-0.0131,-0.0121,-0.0119,-0.0119,-0.0119,-0.0113,-0.0117,-0.0113,-0.0116,-0.0124,-0.0125,-0.0104,-0.0103,-0.0102,-0.009,-0.0121,0,0,0,0,0,-0.0133,-0.0111,-0.0119,-0.01,-0.0107,-0.0115,-0.0117,-0.0119,-0.0121,-0.0117,-0.011,-0.0111,-0.0116,-0.0112,-0.0116,-0.0107,-0.0119,-0.0108,-0.0107,-0.0106,-0.0098,-0.0117,-0.0117,-0.0123,-0.0123,-0.0123,0,0,-0.0128,-0.0118,-0.0108,-0.0095,-0.0106,-0.0106,-0.0115,-0.0121,-0.011,-0.0117,-0.0094,-0.0104,-0.0114,-0.011,-0.0109,-0.011,-0.0112,-0.0107,-0.0106,-0.0098,-0.0118,-0.0117,-0.0117,-0.0123,-0.0123,-0.0123,0,0,-0.0113,-0.0094,-0.0075,-0.0078,-0.0086,-0.0097,-0.0096,-0.0102,-0.0093,-0.008,-0.0088,-0.0091,-0.0087,-0.0095,-0.01,-0.0094,-0.0108,-0.0102,-0.008,-0.0099,-0.0098,-0.0098,-0.0115,-0.0116,-0.0098,-0.0098,-0.0098,0,-0.0105,-0.0072,-0.0076,-0.0063,-0.0063,-0.009,-0.0079,-0.008,-0.0076,-0.0061,-0.0071,-0.0071,-0.008,-0.0079,-0.0082,-0.0089,-0.0103,-0.008,-0.0096,-0.0096,-0.0096,-0.0113,-0.0115,-0.0097,-0.0097,-0.0097,-0.0097,0,-0.0078,-0.0053,-0.0052,-0.0037,-0.0036,-0.0039,-0.0047,-0.0034,-0.0033,-0.0033,-0.0024,-0.0043,-0.0041,-0.0054,-0.0065,-0.007,-0.0081,-0.0094,-0.0095,-0.0093,-0.0112,-0.0115,-0.0095,-0.0095,-0.0096,-0.0096,0,0,-0.0062,-0.0035,-0.0031,-0.0013,-0.0019,-0.0016,-0.0001,0.0008,0.0028,0.0018,0.0043,0.0017,0.0004,-0.0003,-0.0025,-0.0044,-0.0062,-0.0066,-0.0067,-0.0075,-0.0104,-0.0106,-0.0109,-0.0078,-0.0078,-0.0078,-0.0117,0,-0.0042,0.0003,0.0008,0.0034,0.0049,0.0041,0.006,0.0069,0.0069,0.0084,0.0056,0.0057,0.0022,0.002,-0.0005,-0.0043,-0.0066,-0.005,-0.0111,-0.0112,-0.0108,-0.0111,-0.0087,-0.0119,-0.012,-0.012,-0.012,0,-0.0015,0.0016,0.0062,0.0092,0.0097,0.011,0.0142,0.0153,0.0157,0.0162,0.015,0.0121,0.0096,0.0059,-0.0005,0.0007,-0.0045,-0.0083,-0.0086,-0.0096,-0.0118,-0.0122,-0.0124,-0.0124,-0.0124,-0.0124,-0.0124,0,0.002,0.005,0.0096,0.0105,0.0134,0.0163,0.0169,0.0185,0.0212,0.0205,0.0224,0.0175,0.0166,0.0091,0.0015,0.0002,-0.0058,-0.0087,-0.014,-0.0141,-0.0135,-0.0135,-0.0139,-0.0139,-0.0139,-0.0139,-0.0139,0,0.0056,0.0093,0.0118,0.015,0.0196,0.0201,0.0246,0.0256,0.0277,0.0318,0.0262,0.0283,0.0173,0.0127,0.0037,-0.0047,-0.0042,-0.0132,-0.0149,-0.0126,-0.0125,-0.014,-0.014,-0.0141,-0.014,-0.014,-0.014,0,0.0109,0.0127,0.0175,0.021,0.0222,0.0257,0.0295,0.0333,0.0344,0.0397,0.04,0.0368,0.0308,0.0198,0.0084,-0.0002,-0.0096,-0.013,-0.0093,-0.0105,-0.0176,-0.0174,-0.0202,-0.0202,-0.0202,-0.0203,-0.0203,0,0.0152,0.0182,0.0219,0.0249,0.0271,0.0313,0.0352,0.037,0.0418,0.046,0.0501,0.0454,0.0439,0.027,0.0106,-0.0051,-0.008,-0.0138,-0.0164,-0.0167,-0.0182,-0.0179,-0.0176,-0.0151,-0.0151,-0.0151,-0.015,0,0.0213,0.0219,0.0256,0.0314,0.0359,0.0408,0.0466,0.0511,0.0552,0.06,0.0651,0.0635,0.0485,0.0334,0.0119,0.0008,-0.0114,-0.014,-0.0148,-0.0136,-0.0122,-0.0135,-0.0134,-0.0149,-0.0149,-0.0149,-0.0149,-0.0149,0.0241,0.0269,0.0305,0.0368,0.043,0.0508,0.0547,0.062,0.0696,0.0772,0.0757,0.0747,0.0567,0.0298,0.0109,-0.0094,-0.0097,-0.0174,-0.0174,-0.0174,-0.0158,-0.0145,-0.0173,-0.0173,-0.0174,-0.0174,-0.0174,0,0.0243,0.0293,0.0354,0.0426,0.0505,0.0535,0.0629,0.0671,0.0763,0.0845,0.0876,0.0718,0.0553,0.0348,0.0057,-0.0127,-0.0149,-0.0189,-0.0171,-0.0171,-0.0171,-0.0155,-0.017,-0.017,-0.0171,-0.0171,0,0,0.0247,0.0295,0.0335,0.0466,0.054,0.0632,0.0683,0.0762,0.0828,0.0887,0.09,0.0873,0.0632,0.0421,0.0173,0.001,-0.0042,-0.003,-0.0013,0.0038,0.004,-0.0141,-0.0113,0,0,0,0,0]}],[{"header":{"parameterUnit":"m.s-1","parameterCategory":2,"la1":30.2991,"la2":30.254,"lo1":-89.0895,"lo2":-89.0444,"dy":0.0017,"dx":0.0017,"nx":28,"ny":28,"refTime":"2024-05-04T09:00:00:Z","depth":"4","parameterNumber":2,"parameterNumberName":"U-component_of_CURRENTS"},"data":[0,0,0,0,0,0,0,0,0,0,0,0,0,0,0,0,0,0,0,0,0,0,0,0,0,0,0,0,0,0,0,0,0,0,0,0,0,0,0,0,0,0,0,0,0,0,0,0,0,0,0,0,0,0,0,0,0,0,0.0777,0.0778,0,0.0821,0.0821,0.0821,0.0845,0.0846,0.0846,0.0846,0.0888,0.0889,0.0889,0,0,0,0,0,0,0,0,0,0,0,0,0,0.0765,0.0765,0.0777,0.0778,0.0779,0.0821,0.0821,0.0821,0.0845,0.0846,0.0846,0.0846,0.0888,0.0889,0.089,0,0,0,0,0,0,0,0,0,0,0,0,0,0.0783,0.0764,0.0777,0.0798,0.08,0.0821,0.0821,0.0822,0.0845,0.0846,0.0846,0.0847,0.0887,0.0889,0.089,0.0887,0,0,0.0893,0.0894,0,0,0,0,0,0,0,0,0.0782,0.0783,0.0794,0.0797,0.0799,0.0831,0.0832,0.0844,0.0845,0.0825,0.0846,0.0847,0.087,0.0873,0.0876,0.0889,0.0891,0.0893,0.0894,0.0895,0.0895,0,0,0,0,0,0,0,0.078,0.0781,0.0791,0.0795,0.0798,0.0823,0.0825,0.0835,0.0842,0.0827,0.0829,0.0839,0.0871,0.0874,0.0877,0.0891,0.0893,0.0894,0.0895,0.0896,0.0976,0.0977,0,0,0,0,0,0,0.0777,0.078,0.079,0.0793,0.0795,0.0823,0.0825,0.0818,0.0842,0.0847,0.0838,0.084,0.0872,0.0876,0.0879,0.0937,0.0895,0.0896,0.0897,0.0975,0.0976,0.0978,0,0,0,0,0,0,0.0777,0.0777,0.0788,0.0791,0.0795,0.0822,0.0814,0.0818,0.0846,0.0851,0.0856,0.0864,0.0873,0.0877,0.0905,0.0937,0.0896,0.0897,0.0973,0.0975,0.0977,0.1016,0,0,0,0,0,0,0.0776,0.0776,0.0783,0.079,0.0794,0.0811,0.0814,0.0819,0.0851,0.0854,0.0875,0.0878,0.0873,0.0904,0.0907,0.0937,0.0898,0.0971,0.0974,0.0976,0.1012,0.1019,0.1024,0,0,0,0,0,0.0775,0.0786,0.0783,0.0786,0.0798,0.0812,0.0817,0.0837,0.0852,0.0863,0.0881,0.0878,0.0923,0.0905,0.0909,0.0941,0.097,0.0973,0.0976,0.101,0.1017,0.1024,0,0,0,0,0,0,0.0794,0.079,0.0787,0.0798,0.0807,0.0818,0.0841,0.0851,0.0874,0.0886,0.089,0.0893,0.0927,0.0932,0.0912,0.0973,0.0949,0.0953,0.0974,0.0981,0.0986,0.0984,0.0899,0,0,0,0,0,0.0797,0.0803,0.08,0.0815,0.0819,0.0832,0.0848,0.0858,0.0875,0.0887,0.0907,0.0928,0.0939,0.0958,0.0966,0.1001,0.1006,0.1027,0.1033,0.1038,0.104,0.1075,0.1083,0.0988,0.0988,0.0988,0,0,0.0811,0.0812,0.0816,0.082,0.083,0.084,0.0843,0.0871,0.0889,0.0888,0.0935,0.0945,0.095,0.0983,0.1001,0.0996,0.1069,0.1042,0.1046,0.1045,0.1079,0.1088,0.1096,0.0991,0.099,0.099,0,0,0.0835,0.0838,0.0844,0.0849,0.0866,0.0872,0.0884,0.0905,0.0924,0.0959,0.0962,0.0995,0.1024,0.1036,0.1042,0.1088,0.109,0.11,0.1138,0.1172,0.118,0.1187,0.1208,0.1217,0.1113,0.1113,0.1113,0,0.0855,0.085,0.0853,0.0859,0.0871,0.0887,0.0897,0.0916,0.0952,0.0971,0.0982,0.1033,0.1047,0.1075,0.1098,0.1101,0.1116,0.1108,0.1179,0.1186,0.1193,0.1213,0.1222,0.1116,0.1115,0.1115,0.1115,0,0.0864,0.0872,0.0883,0.0886,0.0902,0.0919,0.0934,0.0971,0.1003,0.1017,0.1063,0.1083,0.1119,0.1132,0.1132,0.1187,0.1181,0.1172,0.1158,0.1204,0.1223,0.1231,0.1119,0.1118,0.1117,0.1117,0,0,0.0873,0.0883,0.089,0.0895,0.0916,0.093,0.097,0.0998,0.1034,0.1072,0.1115,0.1149,0.1172,0.1181,0.1193,0.1229,0.1296,0.1232,0.1233,0.1248,0.1371,0.13,0.1302,0.1304,0.1306,0.1307,0.1366,0,0.0878,0.0887,0.0897,0.0924,0.0926,0.0959,0.0989,0.1025,0.1068,0.1119,0.1144,0.1185,0.1185,0.1219,0.1255,0.1283,0.1321,0.1281,0.1329,0.133,0.1257,0.131,0.1312,0.1372,0.1374,0.1375,0.1376,0,0.0869,0.088,0.0892,0.0929,0.0935,0.0964,0.1026,0.1054,0.1116,0.1158,0.1207,0.1227,0.1287,0.1284,0.1356,0.1333,0.1363,0.1378,0.138,0.1305,0.1275,0.1317,0.1392,0.139,0.1389,0.1388,0.1387,0,0.0848,0.0879,0.089,0.0899,0.0938,0.0974,0.1009,0.1069,0.1107,0.119,0.1237,0.1289,0.1342,0.1376,0.1424,0.1403,0.1495,0.1466,0.1422,0.1417,0.1444,0.1436,0.152,0.152,0.152,0.152,0.152,0,0.0827,0.0845,0.0888,0.0892,0.0929,0.0965,0.1017,0.1073,0.115,0.1196,0.1256,0.1311,0.1374,0.1428,0.1448,0.1467,0.1521,0.1436,0.1433,0.1459,0.1452,0.145,0.1441,0.1522,0.1522,0.1521,0.1521,0,0.079,0.0813,0.0831,0.0886,0.0911,0.0936,0.1022,0.1061,0.1146,0.1218,0.1251,0.1356,0.1429,0.1471,0.1544,0.1502,0.1522,0.1517,0.1552,0.1548,0.141,0.1403,0.1457,0.1455,0.1453,0.1452,0.1451,0,0.0761,0.0764,0.0819,0.084,0.087,0.0922,0.0957,0.105,0.1097,0.1234,0.1264,0.1375,0.1431,0.1467,0.1522,0.1545,0.153,0.1518,0.1448,0.1415,0.1407,0.1402,0.1396,0.1448,0.1448,0.1448,0.1447,0,0.0714,0.074,0.0759,0.0798,0.0841,0.0879,0.0947,0.0976,0.1081,0.1173,0.1257,0.1303,0.1387,0.1432,0.1471,0.1481,0.1506,0.1501,0.1503,0.1437,0.1405,0.1397,0.1394,0.1442,0.1442,0.1443,0.1443,0,0.0687,0.0689,0.072,0.0753,0.0798,0.0826,0.0865,0.0931,0.0987,0.1137,0.1169,0.1284,0.1385,0.1403,0.1439,0.1445,0.1411,0.1344,0.1354,0.1361,0.1302,0.1246,0.124,0,0,0,0,0,0.0662,0.0661,0.0681,0.0709,0.0751,0.0784,0.0855,0.0897,0.0999,0.1032,0.11,0.1174,0.1242,0.1305,0.1291,0.1388,0.1408,0.1364,0.1333,0.1411,0.1417,0.1356,0,0,0,0,0,0,0.0643,0.0658,0.066,0.0666,0.0683,0.0726,0.0766,0.0836,0.0857,0.097,0.1016,0.1105,0.1188,0.1247,0.1274,0.129,0.1245,0.1438,0.1435,0.1407,0.1413,0.1418,0.1357,0,0,0,0,0]},{"header":{"parameterUnit":"m.s-1","parameterCategory":2,"la1":30.2991,"la2":30.254,"lo1":-89.0895,"lo2":-89.0444,"dy":0.0017,"dx":0.0017,"nx":28,"ny":28,"refTime":"2024-05-04T09:00:00:Z","depth":"4","parameterNumber":3,"parameterNumberName":"V-component_of_CURRENTS"},"data":[0,0,0,0,0,0,0,0,0,0,0,0,0,0,0,0,0,0,0,0,0,0,0,0,0,0,0,0,0,0,0,0,0,0,0,0,0,0,0,0,0,0,0,0,0,0,0,0,0,0,0,0,0,0,0,0,0,0,-0.002,-0.002,0,-0.0059,-0.006,-0.006,-0.0077,-0.0077,-0.0077,-0.0077,-0.0094,-0.0095,-0.0095,0,0,0,0,0,0,0,0,0,0,0,0,0,0.0001,0.0001,-0.002,-0.0021,-0.0021,-0.0059,-0.006,-0.006,-0.0077,-0.0077,-0.0077,-0.0077,-0.0094,-0.0095,-0.0095,0,0,0,0,0,0,0,0,0,0,0,0,0,-0.0019,0.0001,-0.002,-0.0035,-0.0037,-0.0059,-0.006,-0.006,-0.0077,-0.0077,-0.0077,-0.0077,-0.0094,-0.0095,-0.0095,-0.0097,0,0,-0.0097,-0.0097,0,0,0,0,0,0,0,0,-0.0018,-0.0019,-0.0032,-0.0034,-0.0036,-0.0065,-0.0059,-0.0072,-0.0077,-0.006,-0.0077,-0.0077,-0.0083,-0.0085,-0.009,-0.0097,-0.0098,-0.0097,-0.0097,-0.0098,-0.0098,0,0,0,0,0,0,0,-0.0016,-0.0018,-0.0034,-0.0033,-0.0036,-0.0054,-0.0056,-0.0062,-0.0069,-0.0062,-0.0063,-0.007,-0.0084,-0.0089,-0.009,-0.0098,-0.0097,-0.0097,-0.0098,-0.0098,-0.0114,-0.0114,0,0,0,0,0,0,-0.0012,-0.0017,-0.0033,-0.0035,-0.0029,-0.0054,-0.0057,-0.0054,-0.007,-0.0073,-0.007,-0.0071,-0.0088,-0.009,-0.0091,-0.0086,-0.0098,-0.0098,-0.0098,-0.0114,-0.0114,-0.0114,0,0,0,0,0,0,-0.0011,-0.0013,-0.0031,-0.0029,-0.0033,-0.0054,-0.0051,-0.0055,-0.0067,-0.0076,-0.0079,-0.0079,-0.0088,-0.009,-0.0093,-0.0087,-0.0098,-0.0099,-0.0114,-0.0114,-0.0114,-0.008,0,0,0,0,0,0,-0.001,-0.0012,-0.001,-0.0028,-0.0033,-0.0043,-0.0052,-0.0056,-0.0071,-0.0073,-0.0085,-0.0086,-0.0089,-0.0092,-0.0093,-0.0088,-0.0099,-0.0114,-0.0114,-0.0114,-0.0081,-0.0079,-0.0077,0,0,0,0,0,-0.0009,-0.001,-0.001,-0.0012,-0.0028,-0.0044,-0.0047,-0.0063,-0.0072,-0.0074,-0.0079,-0.0086,-0.0094,-0.0092,-0.0094,-0.0088,-0.0114,-0.0114,-0.0114,-0.0082,-0.0079,-0.0077,0,0,0,0,0,0,-0.0003,-0.0012,-0.0012,-0.0015,-0.0027,-0.0047,-0.0054,-0.0066,-0.0074,-0.0074,-0.0084,-0.0085,-0.0085,-0.0095,-0.0093,-0.0095,-0.0106,-0.0107,-0.0082,-0.0079,-0.0077,-0.0062,-0.01,0,0,0,0,0,0.0001,0.0001,-0.0011,-0.0014,-0.0018,-0.0036,-0.0046,-0.0055,-0.0066,-0.007,-0.008,-0.0087,-0.0087,-0.009,-0.0094,-0.0094,-0.0106,-0.0095,-0.0093,-0.0091,-0.0081,-0.0099,-0.0097,-0.0115,-0.0115,-0.0115,0,0,0.0002,-0.0004,-0.0004,-0.0013,-0.0022,-0.0021,-0.0042,-0.0055,-0.0049,-0.007,-0.0067,-0.008,-0.0087,-0.0083,-0.0085,-0.009,-0.0093,-0.0091,-0.0089,-0.008,-0.0099,-0.0097,-0.0095,-0.0115,-0.0115,-0.0115,0,0,0.0005,0.0001,0.0005,0.0,-0.0012,-0.0018,-0.0022,-0.004,-0.0043,-0.0044,-0.0055,-0.0063,-0.0071,-0.007,-0.0071,-0.0063,-0.0082,-0.0072,-0.0047,-0.0065,-0.0064,-0.0062,-0.0075,-0.0075,-0.0071,-0.0071,-0.0071,0,0.0007,0.0015,0.0001,0.0006,0.0009,-0.0014,-0.0004,-0.001,-0.0026,-0.0023,-0.0037,-0.0048,-0.0059,-0.0047,-0.0044,-0.0056,-0.0071,-0.0053,-0.0062,-0.0061,-0.006,-0.0073,-0.0073,-0.0069,-0.0069,-0.007,-0.007,0,0.0017,0.0025,0.0025,0.0033,0.0033,0.0034,0.0032,0.0026,0.0016,0.0013,0.0014,-0.0004,-0.001,-0.0019,-0.0027,-0.0026,-0.004,-0.0056,-0.0064,-0.0056,-0.007,-0.0072,-0.0067,-0.0067,-0.0068,-0.0068,0,0,0.0018,0.0032,0.0033,0.0048,0.0051,0.0052,0.0064,0.0072,0.0079,0.0063,0.0073,0.0065,0.0045,0.0042,0.0022,0.0006,-0.0005,-0.0022,-0.0023,-0.0027,-0.0044,-0.006,-0.0064,-0.0028,-0.0028,-0.0028,-0.0056,0,0.0033,0.0057,0.006,0.0085,0.0102,0.0096,0.0112,0.0116,0.0112,0.0112,0.0098,0.0097,0.0073,0.0063,0.0047,0.0007,-0.0007,0.0004,-0.0057,-0.0058,-0.0069,-0.0065,-0.0028,-0.0057,-0.0057,-0.0057,-0.0057,0,0.0044,0.0063,0.0097,0.0125,0.0131,0.0142,0.0162,0.0174,0.0175,0.0167,0.0161,0.0145,0.0132,0.0099,0.0051,0.0057,0.0014,-0.002,-0.0022,-0.0048,-0.0077,-0.0068,-0.006,-0.0059,-0.0059,-0.0059,-0.0059,0,0.006,0.0087,0.0121,0.013,0.0157,0.017,0.0182,0.0191,0.0206,0.0201,0.0201,0.0182,0.0168,0.0119,0.0053,0.0049,-0.0009,-0.0026,-0.0077,-0.0079,-0.007,-0.0071,-0.0061,-0.0061,-0.0061,-0.006,-0.006,0,0.0077,0.0098,0.0129,0.0146,0.0181,0.0195,0.0223,0.0224,0.0235,0.0259,0.0232,0.0236,0.0169,0.013,0.0068,-0.0006,0.0001,-0.0067,-0.0086,-0.0056,-0.0055,-0.0071,-0.0071,-0.0061,-0.0061,-0.0061,-0.0061,0,0.0083,0.0105,0.0141,0.0177,0.019,0.0214,0.0247,0.0265,0.027,0.0295,0.0297,0.0274,0.0222,0.0152,0.0066,0.0013,-0.0058,-0.0089,-0.0043,-0.0061,-0.0117,-0.0116,-0.0139,-0.014,-0.0141,-0.0141,-0.0142,0,0.0092,0.0112,0.016,0.0182,0.0197,0.0232,0.0259,0.0278,0.0301,0.0322,0.0338,0.0301,0.0273,0.0156,0.0066,-0.0052,-0.0075,-0.0111,-0.0117,-0.0108,-0.0125,-0.0123,-0.012,-0.0143,-0.0143,-0.0143,-0.0143,0,0.0104,0.0117,0.0146,0.0193,0.0227,0.0266,0.0305,0.0325,0.0357,0.0361,0.0375,0.0322,0.026,0.0163,0.0063,-0.0022,-0.0086,-0.0119,-0.0118,-0.0123,-0.0113,-0.0128,-0.0125,-0.0146,-0.0145,-0.0145,-0.0145,0,0.011,0.0127,0.0165,0.0204,0.0247,0.0292,0.0312,0.0349,0.0376,0.0402,0.0406,0.0345,0.0311,0.0178,0.0091,-0.0001,-0.0026,-0.0055,-0.0058,-0.0056,-0.0032,-0.0007,-0.0018,0,0,0,0,0,0.0114,0.0135,0.0171,0.022,0.026,0.0288,0.0343,0.0363,0.0396,0.0413,0.0412,0.0359,0.024,0.019,0.0097,0.0059,-0.0057,-0.0055,-0.0095,-0.0159,-0.0156,-0.0144,0,0,0,0,0,0,0.0118,0.0153,0.0171,0.0225,0.0255,0.0309,0.0346,0.0373,0.0383,0.0403,0.0344,0.0325,0.0207,0.029,0.0091,0.0063,0.0023,-0.0109,-0.0111,-0.016,-0.0158,-0.0156,-0.0143,0,0,0,0,0]}]]